This demonstration page uses our WeatherBlox Daily Observations layout. Learn more.

Left ArrowRight Arrow

Hourly Observations for May 18, 2016

Temp ( °F °C ) Dew Point ( °F °C ) Humidity (%) Winds ( mph kmh ) Pressure ( in mb ) Visibility ( mi km ) Precip ( " mm )
12:54 am 00:54 Clear 51 10.6 43 6.1 74 74 NNW 5 7 30.24 1024 10 16 0.00 0.00
1:54 am 01:54 Clear 48 8.9 42 5.6 80 80 NNW 5 7 30.24 1024 10 16 0.00 0.00
2:54 am 02:54 Clear 48 8.9 43 6.1 83 83 NW 3 6 30.23 1024 10 16 0.00 0.00
3:54 am 03:54 Clear 42 5.6 40 4.4 92 92 Calm 30.23 1024 10 16 0.00 0.00
4:54 am 04:54 Clear 45 7.2 41 5 86 86 Calm 30.24 1024 10 16 0.00 0.00
5:54 am 05:54 Clear 41 5 38 3.3 89 89 N 3 6 30.25 1024 10 16 0.00 0.00
6:54 am 06:54 Sunny 45 7.2 42 5.6 90 90 Calm 30.26 1025 10 16 0.00 0.00
7:54 am 07:54 Sunny 49 9.4 44 6.7 83 83 Calm 30.26 1025 10 16 0.00 0.00
8:54 am 08:54 Sunny 55 12.8 49 9.4 80 80 SSW 6 9 30.26 1025 7 11 0.00 0.00
9:54 am 09:54 Sunny 60 15.6 51 10.6 72 72 S 3 6 30.26 1025 9 14 0.00 0.00
10:54 am 10:54 Sunny 66 18.9 50 10 56 56 Calm 30.25 1024 10 16 0.00 0.00
11:54 am 11:54 Sunny 68 20 38 3.3 33 33 ESE 8 13 30.24 1024 10 16 0.00 0.00
12:54 pm 12:54 Cloudy 70 21.1 39 3.9 32 32 undefined N/A 30.22 1023 10 16 0.00 0.00
1:54 pm 13:54 Mostly Cloudy 69 20.6 38 3.3 32 32 Calm 30.20 1023 10 16 0.00 0.00
2:54 pm 14:54 Partly Cloudy 72 22.2 39 3.9 30 30 VRB 5 7 30.18 1022 10 16 0.00 0.00
3:54 pm 15:54 Partly Cloudy 71 21.7 37 2.8 29 29 NE 3 6 30.17 1022 10 16 0.00 0.00
4:54 pm 16:54 Mostly Cloudy 73 22.8 38 3.3 28 28 VRB 3 6 30.14 1021 10 16 0.00 0.00
5:54 pm 17:54 Mostly Sunny 72 22.2 39 3.9 30 30 ENE 6 9 30.14 1021 10 16 0.00 0.00
6:37 pm 18:37 Mostly Sunny 72 22.2 40 4.4 31 31 Calm 30.12 1020 10 16 0.00 0.00
6:54 pm 18:54 Mostly Cloudy 71 21.7 39 3.9 31 31 E 3 6 30.12 1020 10 16 0.00 0.00
7:54 pm 19:54 Sunny 68 20 40 4.4 36 36 ESE 7 11 30.11 1020 10 16 0.00 0.00
8:54 pm 20:54 Clear 65 18.3 41 5 42 42 ESE 8 13 30.11 1020 10 16 0.00 0.00
9:54 pm 21:54 Clear 62 16.7 47 8.3 58 58 SE 9 15 30.13 1020 10 16 0.00 0.00
10:54 pm 22:54 Clear 57 13.9 48 8.9 72 72 SSE 9 15 30.14 1021 10 16 0.00 0.00
11:54 pm 23:54 Clear 54 12.2 48 8.9 80 80 S 6 9 30.14 1021 10 16 0.00 0.00

Powered by AerisWeather